STARLINK-1320, 45572

Orbit data source: Space-Track

STARLINK-1320, 45572 is a payload satellite owned by SpaceX/Seattle (US) in LEO that was launched on Wed, 22 Apr 2020 UTC via an FALCON 9 launch vehicle from the Air Force Eastern Test Range (AFETR). Payload-class satellites include a variety of spacecraft equipped with specific instruments for various scientific and technological missions. These include communications satellites like Starlink; space stations such as the ISS; scientific satellites like the Hubble; Earth observation satellites from companies like Planet Labs, Umbra, and HawkEye 360; GPS; miniature CubeSats for education and research; and military/defense satellites.

Loading next visibility...
Identifier
45572, 2020-025AT
Orbit
LEO
Country
Flag of USUS
Related business
Manufacturer
SpaceX/Seattle
Mission
Partially operational Commercial Communications
Bus & Motor
STARLINK, Unknown motor
Mass
260 kg wet, ~248 kg dry
Launch date (UTC)
2020-04-22 (6 years ago)
Launch vehicle
FALCON 9
Launch site
Air Force Eastern Test Range (AFETR)
Object type
Payload
Rocket body
Debris
Shape & HBR
Box + 1 Pan, 10.1 m
Radar Cross Section
13.562 m², Large (>1 m²)

Expand to show TLE details & history
Last TLE update: 4 hours ago

TLE from 4 hours ago
0 STARLINK-1320
1 45572U 20025AT  26123.83335647  .00109589  00000-0  61441-3 0  9996
2 45572  53.0452  71.6687 0003488 163.0228 316.0143 15.78497075  6012
Epoch: 2026-05-03T20:00Z
TLE epoch observation values (Epoch: 2026-05-03T20:00:01.999Z)
Latitude
44.47828°
Longitude
42.65729°
Altitude
337.554 km
Speed
7.713 km/s
True Right ascension
13h 37m 35s
True Declination
44° 17' 44"
Sunlit
Object was in full shadow at epoch
Visualization orbit readout
Latitude
Unknown
Longitude
Unknown
Altitude
Unknown
Speed
Unknown
Apparent Right ascension
Unknown
Apparent Declination
Unknown
Sunlit
N/A
Visualization observer readout
Local Sidereal Time
07:28:59
Azimuth
Unknown
Elevation
Unknown
Doppler factor
Unknown
Orbital elements
Apogee altitude
337.32 km
Perigee altitude
332.637 km
Semi-major axis
6,713.116 km
Eccentricity
0.00035
Inclination
53.0452°
RAAN
71.6687°
Arg. of periapsis
163.0228°
True anomaly
315.98653°
Mean anomaly
316.0143°
Eccentric anomaly
316.00042°
Mean motion
3.946 °/min
Orbital period
91.23 mins
BSTAR
0.00061441
Loading maneuver chart data...
Computing Atmospheric mass density...

Documentation

Showing up to 5 results
|